Location: ????
(32.1228°N, 34.8377°E)
Time: 17:25:34
(UTC+00:00)

USA 32 - Pass Details

Date: 21 September 2020
Orbit: 778 x 782 km, 85.0° (Epoch: 27 September)

Event Time Altitude Azimuth Distance (km) Brightness Sun altitude
Rises 02:16:22 0° 351° (N) 3,269 7.3 -16.0°
Reaches altitude 10° 02:18:45 10° 348° (NNW) 2,338 6.5 -15.5°
Maximum altitude 02:23:54 59° 270° (W) 897 4.0 -14.4°
Drops below altitude 10° 02:29:01 10° 191° (SSW) 2,327 6.3 -13.3°
Sets 02:31:24 0° 188° (S) 3,252 7.1 -12.8°
